[[{"header":{"parameterUnit":"m.s-1","parameterCategory":2,"la1":30.2991,"la2":30.254,"lo1":-89.0895,"lo2":-89.0444,"dy":0.0017,"dx":0.0017,"nx":28,"ny":28,"refTime":"2023-11-21T09:00:00:Z","depth":"0","parameterNumber":2,"parameterNumberName":"U-component_of_CURRENTS"},"data":[0,0,0,0,0,0,0,0,0,0,0,0,0,0,0,0,0,0,0,0,0,0,0,0,0,0,0,0,0,0,0,0,0,0,0,0,0,0,0,0,0,0,0,0,0,0,0,0,0,0,0,0,0,0,0,0,0,0,0.1327,0.1328,0,0.1337,0.1336,0.1336,0.1311,0.131,0.131,0.131,0.1296,0.1296,0.1296,0,0,0,0,0,0,0,0,0,0,0,0,0,0.1246,0.1248,0.1327,0.1328,0.1328,0.1337,0.1336,0.1336,0.1311,0.131,0.131,0.1309,0.1296,0.1296,0.1296,0,0,0,0,0,0,0,0,0,0,0,0,0,0.1267,0.1248,0.1327,0.132,0.1319,0.1337,0.1336,0.1336,0.1311,0.131,0.131,0.1309,0.1296,0.1296,0.1296,0.1309,0,0,0.1296,0.1296,0,0,0,0,0,0,0,0,0.1266,0.127,0.132,0.132,0.132,0.1325,0.1303,0.1327,0.1311,0.131,0.131,0.1309,0.1307,0.1306,0.1304,0.1308,0.1307,0.1296,0.1296,0.1296,0.1296,0,0,0,0,0,0,0,0.1265,0.1269,0.1327,0.1321,0.1321,0.1302,0.1304,0.1307,0.1308,0.131,0.1309,0.1317,0.1306,0.1304,0.1303,0.1307,0.1296,0.1296,0.1296,0.1296,0.1292,0.1292,0,0,0,0,0,0,0.1275,0.1268,0.1327,0.1328,0.1296,0.1304,0.1307,0.1321,0.1309,0.1307,0.1317,0.1316,0.1304,0.1303,0.1302,0.1317,0.1296,0.1296,0.1296,0.1292,0.1292,0.1292,0,0,0,0,0,0,0.1273,0.1281,0.1326,0.13,0.1306,0.1307,0.1323,0.1322,0.132,0.1315,0.1313,0.1318,0.1303,0.1302,0.1303,0.1316,0.1296,0.1296,0.1292,0.1292,0.1292,0.1345,0,0,0,0,0,0,0.1271,0.128,0.1296,0.1302,0.1308,0.1334,0.1324,0.1322,0.1328,0.1325,0.1315,0.1313,0.1303,0.1303,0.1303,0.1315,0.1296,0.1292,0.1292,0.1292,0.1343,0.1346,0.1349,0,0,0,0,0,0.1268,0.1296,0.1297,0.1304,0.1329,0.1334,0.1335,0.1331,0.1328,0.1326,0.1321,0.1313,0.1301,0.1304,0.1304,0.1316,0.1292,0.1292,0.1292,0.1342,0.1346,0.1349,0,0,0,0,0,0,0.1271,0.1297,0.1297,0.1332,0.1331,0.1331,0.1339,0.1335,0.133,0.1328,0.1319,0.1317,0.1304,0.1308,0.1311,0.131,0.1293,0.1292,0.1331,0.1334,0.1337,0.1483,0.1296,0,0,0,0,0,0.1281,0.1306,0.1315,0.134,0.1343,0.1341,0.1345,0.1339,0.1337,0.1334,0.1322,0.1314,0.1304,0.1319,0.1292,0.1319,0.1411,0.1322,0.1325,0.1327,0.1444,0.1559,0.1586,0.1291,0.1291,0.1291,0,0,0.1289,0.1307,0.1321,0.1342,0.1342,0.1351,0.134,0.1346,0.1363,0.1335,0.1343,0.1308,0.1303,0.1306,0.1306,0.132,0.1449,0.1327,0.133,0.1448,0.1562,0.1592,0.1619,0.129,0.129,0.1291,0,0,0.1304,0.1332,0.1345,0.1351,0.1357,0.1362,0.1366,0.1358,0.1366,0.1369,0.1343,0.1353,0.132,0.135,0.1357,0.1376,0.1434,0.1323,0.1498,0.1604,0.1632,0.1658,0.1784,0.1822,0.1358,0.1358,0.1358,0,0.1309,0.1338,0.1348,0.1357,0.1382,0.137,0.1391,0.1397,0.1388,0.1436,0.1374,0.1403,0.1366,0.1459,0.1461,0.1393,0.1477,0.148,0.1617,0.1645,0.1671,0.1795,0.1835,0.136,0.136,0.136,0.136,0,0.1321,0.135,0.136,0.1379,0.1402,0.1418,0.1437,0.1459,0.1461,0.1485,0.1544,0.1512,0.1567,0.1514,0.1506,0.1662,0.1665,0.158,0.1626,0.1706,0.1827,0.1869,0.1364,0.1363,0.1362,0.1362,0,0,0.1327,0.1362,0.1368,0.1395,0.1425,0.1447,0.1506,0.1583,0.1658,0.165,0.1772,0.1761,0.1784,0.1803,0.177,0.1888,0.2091,0.1851,0.1855,0.2014,0.2376,0.2338,0.2379,0.2031,0.2039,0.2045,0.2378,0,0.1335,0.1371,0.1396,0.1449,0.1479,0.1526,0.1587,0.1662,0.1716,0.1814,0.1874,0.1923,0.1878,0.1898,0.2023,0.2047,0.221,0.2014,0.225,0.226,0.2246,0.243,0.2348,0.2636,0.2419,0.2426,0.2431,0,0.1341,0.1377,0.1424,0.1521,0.154,0.1572,0.1727,0.1777,0.1933,0.1984,0.2119,0.2138,0.2322,0.2224,0.2487,0.2365,0.2442,0.2474,0.2484,0.2496,0.2303,0.2524,0.2721,0.2681,0.2496,0.2491,0.2486,0,0.1344,0.1411,0.1461,0.1482,0.1568,0.1633,0.1697,0.184,0.1926,0.2112,0.2199,0.239,0.2471,0.2627,0.2704,0.2622,0.2985,0.2836,0.2911,0.2906,0.2922,0.2906,0.3159,0.3109,0.3108,0.3107,0.3106,0,0.1351,0.1397,0.1465,0.1482,0.1586,0.1647,0.1776,0.1874,0.2035,0.2153,0.2289,0.2425,0.2583,0.2765,0.284,0.3039,0.31,0.3065,0.3033,0.2925,0.2907,0.2935,0.2853,0.312,0.3117,0.3114,0.3112,0,0.1337,0.1368,0.1436,0.1534,0.1575,0.165,0.1799,0.1897,0.2041,0.2211,0.2277,0.2519,0.2753,0.2916,0.3157,0.3193,0.3293,0.3408,0.3288,0.3238,0.3222,0.3142,0.3276,0.3187,0.3588,0.359,0.3591,0,0.133,0.1353,0.1459,0.1508,0.1549,0.1663,0.1744,0.1891,0.199,0.2248,0.2333,0.262,0.2793,0.3174,0.3319,0.354,0.3398,0.3577,0.3408,0.3341,0.3229,0.3008,0.2905,0.3442,0.3442,0.3442,0.3442,0,0.1334,0.1362,0.1419,0.1517,0.1598,0.169,0.1807,0.1879,0.2043,0.2193,0.2405,0.2564,0.293,0.3141,0.3426,0.3522,0.3405,0.3583,0.3564,0.3248,0.2986,0.2838,0.31,0.3443,0.3442,0.3442,0.3442,0.3442,0.1352,0.1403,0.1471,0.1566,0.1636,0.1705,0.1767,0.1875,0.2016,0.2203,0.2368,0.259,0.2932,0.3323,0.3405,0.3541,0.3426,0.3515,0.3466,0.3283,0.3085,0.3371,0.3607,0.3608,0.3609,0.3609,0.361,0,0.1416,0.1465,0.1532,0.1631,0.1676,0.1716,0.1807,0.1849,0.1964,0.2145,0.2312,0.2673,0.293,0.3187,0.3457,0.3447,0.3249,0.3414,0.3121,0.3052,0.341,0.3289,0.3405,0.3405,0.3405,0.3405,0.3405,0.3405,0.1471,0.1547,0.1579,0.1658,0.1698,0.1748,0.1779,0.1824,0.1927,0.213,0.2325,0.2499,0.2892,0.3275,0.3395,0.3349,0.3114,0.302,0.2977,0.3263,0.3267,0.3271,0.3145,0.3228,0.3228,0.2507,0.2502,0.2499]},{"header":{"parameterUnit":"m.s-1","parameterCategory":2,"la1":30.2991,"la2":30.254,"lo1":-89.0895,"lo2":-89.0444,"dy":0.0017,"dx":0.0017,"nx":28,"ny":28,"refTime":"2023-11-21T09:00:00:Z","depth":"0","parameterNumber":3,"parameterNumberName":"V-component_of_CURRENTS"},"data":[0,0,0,0,0,0,0,0,0,0,0,0,0,0,0,0,0,0,0,0,0,0,0,0,0,0,0,0,0,0,0,0,0,0,0,0,0,0,0,0,0,0,0,0,0,0,0,0,0,0,0,0,0,0,0,0,0,0,-0.0418,-0.0418,0,-0.046,-0.0461,-0.0461,-0.0459,-0.0459,-0.0458,-0.0458,-0.0505,-0.0507,-0.0509,0,0,0,0,0,0,0,0,0,0,0,0,0,-0.0298,-0.03,-0.0418,-0.0418,-0.0419,-0.046,-0.0461,-0.0461,-0.046,-0.0459,-0.0458,-0.0457,-0.0505,-0.0507,-0.0509,0,0,0,0,0,0,0,0,0,0,0,0,0,-0.0347,-0.0301,-0.0418,-0.0423,-0.0423,-0.046,-0.0461,-0.0462,-0.046,-0.0459,-0.0458,-0.0457,-0.0504,-0.0507,-0.051,-0.0546,0,0,-0.0518,-0.0519,0,0,0,0,0,0,0,0,-0.0344,-0.0351,-0.0421,-0.0422,-0.0423,-0.0453,-0.0436,-0.049,-0.046,-0.0446,-0.0457,-0.0456,-0.0489,-0.0493,-0.0504,-0.0549,-0.0551,-0.0519,-0.052,-0.0521,-0.0522,0,0,0,0,0,0,0,-0.0341,-0.0349,-0.0435,-0.0422,-0.0423,-0.0409,-0.0416,-0.0446,-0.0473,-0.0448,-0.0447,-0.0452,-0.0489,-0.0501,-0.0505,-0.0551,-0.0518,-0.0521,-0.0523,-0.0524,-0.0591,-0.0591,0,0,0,0,0,0,-0.0338,-0.0346,-0.0434,-0.0436,-0.038,-0.0413,-0.042,-0.0445,-0.0473,-0.0476,-0.0452,-0.0451,-0.0497,-0.0501,-0.0506,-0.05,-0.0521,-0.0524,-0.0526,-0.0591,-0.0591,-0.0591,0,0,0,0,0,0,-0.0336,-0.0346,-0.0432,-0.039,-0.04,-0.0416,-0.0444,-0.0446,-0.0456,-0.0476,-0.0479,-0.046,-0.0496,-0.0502,-0.0526,-0.0504,-0.0525,-0.0528,-0.0591,-0.0591,-0.0591,-0.052,0,0,0,0,0,0,-0.0332,-0.0346,-0.0366,-0.0391,-0.0402,-0.0455,-0.0445,-0.0448,-0.046,-0.0459,-0.0484,-0.0487,-0.0496,-0.0521,-0.0529,-0.0508,-0.053,-0.0591,-0.0591,-0.0591,-0.0522,-0.0518,-0.0514,0,0,0,0,0,-0.0328,-0.0363,-0.0367,-0.0377,-0.043,-0.0455,-0.046,-0.0467,-0.0461,-0.0471,-0.048,-0.0486,-0.0527,-0.0524,-0.0532,-0.0512,-0.0591,-0.0591,-0.0591,-0.0524,-0.0519,-0.0514,0,0,0,0,0,0,-0.0335,-0.0367,-0.0372,-0.0418,-0.0433,-0.0455,-0.0469,-0.0471,-0.0487,-0.0484,-0.0496,-0.0501,-0.0511,-0.0533,-0.0529,-0.0534,-0.0557,-0.0559,-0.0504,-0.0499,-0.0495,-0.0387,-0.0532,0,0,0,0,0,-0.0343,-0.0372,-0.0395,-0.0433,-0.044,-0.0453,-0.0465,-0.0468,-0.0483,-0.0489,-0.0501,-0.0513,-0.0522,-0.0526,-0.0547,-0.0558,-0.053,-0.055,-0.0546,-0.0542,-0.0461,-0.0447,-0.0432,-0.0592,-0.0592,-0.0592,0,0,-0.0359,-0.0379,-0.0398,-0.0434,-0.0447,-0.0422,-0.0459,-0.0478,-0.0438,-0.0494,-0.0462,-0.0508,-0.0525,-0.0526,-0.0532,-0.0538,-0.0486,-0.0542,-0.0538,-0.0458,-0.0445,-0.0429,-0.0415,-0.0592,-0.0592,-0.0592,0,0,-0.036,-0.0419,-0.0411,-0.0415,-0.0426,-0.0429,-0.043,-0.0447,-0.0439,-0.0437,-0.0452,-0.047,-0.0504,-0.0488,-0.0488,-0.0476,-0.0471,-0.0509,-0.0388,-0.0378,-0.0363,-0.0349,-0.0299,-0.0281,-0.0499,-0.0499,-0.0498,0,-0.0368,-0.0346,-0.0416,-0.0386,-0.0353,-0.0418,-0.0355,-0.0373,-0.0389,-0.0351,-0.0416,-0.0405,-0.0462,-0.039,-0.0396,-0.0457,-0.0439,-0.0406,-0.0367,-0.0353,-0.034,-0.0291,-0.0273,-0.0495,-0.0496,-0.0496,-0.0496,0,-0.0325,-0.0298,-0.0298,-0.026,-0.0259,-0.0231,-0.024,-0.0234,-0.0247,-0.024,-0.0205,-0.0282,-0.025,-0.0307,-0.035,-0.0278,-0.0291,-0.0371,-0.0367,-0.0318,-0.0272,-0.0254,-0.049,-0.0491,-0.0493,-0.0493,0,0,-0.0318,-0.0265,-0.0252,-0.0177,-0.0167,-0.0151,-0.0099,-0.0033,0.0032,-0.0021,0.0086,0.002,-0.002,-0.002,-0.0093,-0.0099,-0.0047,-0.0187,-0.0188,-0.0108,0.0018,-0.0045,-0.0032,-0.013,-0.0127,-0.0124,0.0012,0,-0.0222,-0.0106,-0.0109,0.0023,0.0101,0.0083,0.0144,0.0172,0.017,0.0225,0.018,0.0205,0.0088,0.008,0.007,-0.0025,0.0007,-0.0072,-0.006,-0.0056,-0.0098,-0.0011,-0.0061,0.0052,0.003,0.0033,0.0036,0,-0.0121,-0.0046,0.0104,0.0234,0.0262,0.031,0.0428,0.0463,0.0503,0.0503,0.0535,0.0477,0.0499,0.0343,0.0326,0.0277,0.0195,0.0112,0.0113,0.0066,-0.0084,-0.0002,0.0086,-0.0123,0.0064,0.0062,0.006,0,-0.0005,0.0128,0.0269,0.0308,0.0404,0.0475,0.0515,0.056,0.0607,0.0675,0.071,0.0732,0.0718,0.0647,0.047,0.0406,0.0428,0.0306,0.0211,0.0206,0.0182,0.0168,0.0105,0.0343,0.0342,0.0342,0.0342,0,0.0148,0.0263,0.033,0.0408,0.0551,0.0576,0.0699,0.074,0.08,0.0874,0.085,0.0918,0.0781,0.075,0.0598,0.0485,0.0541,0.0308,0.0254,0.0199,0.0186,0.0015,-0.0092,0.0347,0.0346,0.0345,0.0344,0,0.0268,0.032,0.0465,0.0576,0.0606,0.0692,0.077,0.0843,0.0901,0.1,0.1029,0.1072,0.1044,0.0912,0.0791,0.064,0.0417,0.0468,0.0435,0.0374,0.0065,-0.0035,-0.0042,-0.0124,0.0427,0.0427,0.0426,0,0.0359,0.0444,0.0547,0.0594,0.0643,0.0745,0.08,0.0875,0.0944,0.109,0.1153,0.1192,0.1234,0.1085,0.0824,0.0643,0.0434,0.0456,0.0316,0.0111,-0.004,-0.011,-0.0185,0.0318,0.0317,0.0316,0.0315,0,0.0508,0.051,0.0589,0.0677,0.0745,0.0835,0.0927,0.1002,0.1098,0.1219,0.1378,0.1443,0.1307,0.1128,0.0855,0.0675,0.0298,0.0427,0.0222,-0.0084,-0.0163,-0.0293,0.0184,0.0306,0.0307,0.0307,0.0308,0.0308,0.0574,0.0628,0.0687,0.0771,0.0832,0.0934,0.1033,0.1141,0.1299,0.1505,0.1535,0.1682,0.1376,0.1013,0.0736,0.0188,0.0231,0.0008,-0.0072,-0.0105,-0.0255,0.0226,0.0251,0.0251,0.0252,0.0252,0.0253,0,0.068,0.0715,0.0785,0.0883,0.0957,0.0984,0.1127,0.1246,0.1454,0.1636,0.1792,0.1742,0.132,0.0867,0.016,-0.0232,-0.0383,-0.0448,-0.057,-0.0607,-0.0169,-0.0255,-0.0349,-0.0349,-0.0349,-0.0349,-0.0349,-0.0348,0.0746,0.082,0.0846,0.0985,0.1047,0.1191,0.129,0.1463,0.1626,0.1897,0.2017,0.2085,0.1716,0.0426,-0.0492,-0.071,-0.097,-0.1026,-0.1122,-0.0879,-0.0844,-0.0811,-0.0919,-0.1151,-0.1152,-0.1547,-0.1551,-0.1554]}],[{"header":{"parameterUnit":"m.s-1","parameterCategory":2,"la1":30.2991,"la2":30.254,"lo1":-89.0895,"lo2":-89.0444,"dy":0.0017,"dx":0.0017,"nx":28,"ny":28,"refTime":"2023-11-21T09:00:00:Z","depth":"2","parameterNumber":2,"parameterNumberName":"U-component_of_CURRENTS"},"data":[0,0,0,0,0,0,0,0,0,0,0,0,0,0,0,0,0,0,0,0,0,0,0,0,0,0,0,0,0,0,0,0,0,0,0,0,0,0,0,0,0,0,0,0,0,0,0,0,0,0,0,0,0,0,0,0,0,0,0.0572,0.0573,0,0.0601,0.0602,0.0602,0.0629,0.0629,0.063,0.063,0.0665,0.0665,0.0666,0,0,0,0,0,0,0,0,0,0,0,0,0,0.0562,0.0562,0.0572,0.0573,0.0573,0.0601,0.0602,0.0602,0.0629,0.063,0.063,0.063,0.0665,0.0665,0.0666,0,0,0,0,0,0,0,0,0,0,0,0,0,0.0576,0.0562,0.0572,0.059,0.0592,0.0601,0.0602,0.0602,0.0629,0.063,0.063,0.063,0.0664,0.0665,0.0666,0.0662,0,0,0.0669,0.0669,0,0,0,0,0,0,0,0,0.0575,0.0576,0.0587,0.0589,0.0591,0.0612,0.0611,0.0623,0.0629,0.0615,0.063,0.0631,0.0647,0.065,0.0654,0.0663,0.0665,0.0669,0.067,0.067,0.067,0,0,0,0,0,0,0,0.0574,0.0575,0.0584,0.0587,0.059,0.0604,0.0606,0.0613,0.0628,0.0616,0.0618,0.0621,0.0649,0.0653,0.0655,0.0665,0.0669,0.067,0.067,0.0671,0.0719,0.072,0,0,0,0,0,0,0.0569,0.0574,0.0583,0.0585,0.0584,0.0604,0.0606,0.0605,0.0628,0.0632,0.0621,0.0622,0.0651,0.0654,0.0656,0.0716,0.067,0.0671,0.0671,0.0719,0.0719,0.072,0,0,0,0,0,0,0.0568,0.0569,0.0582,0.0581,0.0583,0.0603,0.0601,0.0605,0.0616,0.0631,0.0636,0.0628,0.0652,0.0655,0.0671,0.0715,0.0671,0.0672,0.0718,0.0719,0.072,0.0795,0,0,0,0,0,0,0.0568,0.0569,0.0565,0.058,0.0583,0.0598,0.0601,0.0605,0.0617,0.0619,0.0639,0.0643,0.0652,0.0669,0.0671,0.0716,0.0673,0.0717,0.0718,0.0719,0.0792,0.0799,0.0805,0,0,0,0,0,0.0567,0.0561,0.0565,0.0566,0.0578,0.0598,0.0601,0.0617,0.0616,0.0627,0.0637,0.0642,0.068,0.067,0.0673,0.0719,0.0716,0.0718,0.0719,0.0789,0.0798,0.0805,0,0,0,0,0,0,0.0548,0.0563,0.0568,0.0564,0.0585,0.0603,0.0611,0.0617,0.0632,0.0639,0.0644,0.0649,0.0685,0.0678,0.0666,0.0734,0.0702,0.0704,0.0754,0.0762,0.0768,0.0792,0.0674,0,0,0,0,0,0.0543,0.0546,0.0565,0.0563,0.0574,0.0592,0.06,0.0617,0.0632,0.0639,0.0661,0.0676,0.0692,0.0706,0.0721,0.0749,0.0766,0.078,0.0786,0.0792,0.0812,0.0877,0.0892,0.0726,0.0726,0.0726,0,0,0.0532,0.0542,0.0542,0.056,0.0576,0.0611,0.0599,0.0623,0.0657,0.064,0.0694,0.07,0.0701,0.0744,0.076,0.0747,0.0845,0.0794,0.0799,0.0816,0.088,0.0897,0.0912,0.0727,0.0727,0.0726,0,0,0.0542,0.0527,0.0553,0.0573,0.0607,0.062,0.0628,0.0665,0.0685,0.0724,0.0727,0.0753,0.0781,0.0802,0.0809,0.0852,0.0875,0.0861,0.0922,0.0985,0.1,0.1014,0.1047,0.1063,0.0868,0.0868,0.0868,0,0.0535,0.0567,0.0562,0.0604,0.0625,0.0628,0.0672,0.0691,0.0734,0.076,0.0753,0.0817,0.0812,0.0866,0.0887,0.0872,0.0906,0.0895,0.0997,0.1011,0.1024,0.1055,0.1072,0.0872,0.0871,0.0871,0.0871,0,0.0587,0.0609,0.0624,0.0678,0.0696,0.0729,0.0758,0.0793,0.0812,0.0839,0.0902,0.0906,0.095,0.095,0.0932,0.1022,0.1016,0.0998,0.0985,0.1046,0.1073,0.109,0.0877,0.0876,0.0875,0.0874,0,0,0.0585,0.0649,0.0659,0.0696,0.0739,0.0764,0.0817,0.087,0.0909,0.0959,0.1018,0.1052,0.1068,0.1075,0.107,0.1117,0.1218,0.1107,0.1108,0.1153,0.1358,0.1288,0.1298,0.1236,0.1239,0.1242,0.1338,0,0.0636,0.072,0.0738,0.0812,0.0854,0.0871,0.0918,0.0965,0.0989,0.1045,0.1071,0.1115,0.1111,0.1132,0.1191,0.1199,0.1267,0.1193,0.1281,0.1283,0.1225,0.1317,0.1257,0.1334,0.1354,0.1357,0.1359,0,0.0698,0.0743,0.0822,0.0888,0.0908,0.095,0.1015,0.1059,0.1119,0.1145,0.1208,0.1215,0.1289,0.1263,0.1378,0.134,0.1376,0.1382,0.1386,0.1311,0.1245,0.1277,0.1362,0.1385,0.1383,0.1381,0.1379,0,0.0714,0.0803,0.0863,0.0886,0.0959,0.1001,0.1042,0.1098,0.1134,0.1206,0.1244,0.1325,0.1373,0.1439,0.1455,0.1441,0.156,0.1533,0.1512,0.1506,0.1465,0.1449,0.1649,0.1649,0.1649,0.1648,0.1648,0,0.0756,0.0811,0.0878,0.0908,0.0975,0.1029,0.1091,0.1139,0.1206,0.1252,0.1306,0.1362,0.143,0.1485,0.1501,0.1554,0.1613,0.1553,0.1544,0.1484,0.1469,0.1515,0.1498,0.1652,0.1651,0.165,0.165,0,0.0775,0.0816,0.0888,0.0966,0.0978,0.1036,0.1101,0.1135,0.1225,0.1287,0.1317,0.1421,0.1501,0.1532,0.1615,0.1613,0.1644,0.165,0.1553,0.1531,0.154,0.1526,0.1661,0.166,0.1659,0.1658,0.1657,0,0.0797,0.0834,0.0903,0.092,0.0953,0.1022,0.1038,0.1123,0.1157,0.1315,0.134,0.1454,0.1514,0.1602,0.1608,0.1635,0.1646,0.1585,0.1544,0.1573,0.1551,0.1538,0.1526,0.1521,0.1519,0.1517,0.1516,0,0.0812,0.0838,0.0869,0.09,0.0921,0.0975,0.1025,0.1052,0.1159,0.1233,0.136,0.1432,0.154,0.1562,0.1581,0.1569,0.1566,0.1554,0.1659,0.1502,0.1442,0.1418,0.1411,0.1503,0.1504,0.1505,0.1506,0.1506,0.0796,0.0818,0.0829,0.087,0.0899,0.0946,0.0967,0.1023,0.1089,0.1212,0.1306,0.1411,0.1472,0.1485,0.1457,0.1437,0.1516,0.1479,0.1484,0.149,0.1433,0.1372,0.1408,0.1409,0.1409,0.141,0.141,0,0.0755,0.078,0.0793,0.0833,0.0859,0.0911,0.0954,0.096,0.1019,0.1159,0.1266,0.1236,0.1302,0.1351,0.1338,0.1334,0.131,0.1269,0.127,0.1285,0.1298,0.123,0.1152,0.1151,0.115,0.1148,0,0,0.0726,0.0709,0.0722,0.076,0.0824,0.0845,0.0877,0.0892,0.0967,0.1036,0.1126,0.1267,0.1356,0.1248,0.124,0.1221,0.1229,0.1164,0.1382,0.1402,0.1414,0.1441,0.1355,0,0,0,0,0]},{"header":{"parameterUnit":"m.s-1","parameterCategory":2,"la1":30.2991,"la2":30.254,"lo1":-89.0895,"lo2":-89.0444,"dy":0.0017,"dx":0.0017,"nx":28,"ny":28,"refTime":"2023-11-21T09:00:00:Z","depth":"2","parameterNumber":3,"parameterNumberName":"V-component_of_CURRENTS"},"data":[0,0,0,0,0,0,0,0,0,0,0,0,0,0,0,0,0,0,0,0,0,0,0,0,0,0,0,0,0,0,0,0,0,0,0,0,0,0,0,0,0,0,0,0,0,0,0,0,0,0,0,0,0,0,0,0,0,0,-0.0242,-0.0243,0,-0.0298,-0.0299,-0.03,-0.0339,-0.0339,-0.034,-0.034,-0.041,-0.0412,-0.0414,0,0,0,0,0,0,0,0,0,0,0,0,0,-0.0189,-0.019,-0.0242,-0.0243,-0.0244,-0.0298,-0.0299,-0.03,-0.0339,-0.0339,-0.034,-0.034,-0.041,-0.0412,-0.0414,0,0,0,0,0,0,0,0,0,0,0,0,0,-0.0226,-0.019,-0.0242,-0.0269,-0.0272,-0.0298,-0.0299,-0.03,-0.0339,-0.0339,-0.034,-0.034,-0.0409,-0.0412,-0.0414,-0.0422,0,0,-0.0422,-0.0423,0,0,0,0,0,0,0,0,-0.0224,-0.0228,-0.0265,-0.0268,-0.0271,-0.0312,-0.0306,-0.0341,-0.0339,-0.0314,-0.034,-0.034,-0.0378,-0.0383,-0.0393,-0.0425,-0.0428,-0.0422,-0.0423,-0.0424,-0.0425,0,0,0,0,0,0,0,-0.0221,-0.0226,-0.0265,-0.0265,-0.0269,-0.0285,-0.0291,-0.0313,-0.0344,-0.0316,-0.0319,-0.0324,-0.038,-0.0391,-0.0395,-0.0429,-0.0422,-0.0424,-0.0425,-0.0426,-0.0492,-0.0492,0,0,0,0,0,0,-0.0212,-0.0223,-0.0263,-0.0267,-0.0247,-0.0286,-0.0292,-0.0299,-0.0344,-0.0351,-0.0324,-0.0326,-0.0387,-0.0392,-0.0398,-0.0426,-0.0424,-0.0427,-0.0428,-0.0491,-0.0492,-0.0492,0,0,0,0,0,0,-0.021,-0.0215,-0.0261,-0.0246,-0.0253,-0.0286,-0.0293,-0.0299,-0.032,-0.0349,-0.0357,-0.0338,-0.0387,-0.0395,-0.0422,-0.0428,-0.0428,-0.043,-0.0491,-0.0491,-0.0492,-0.0471,0,0,0,0,0,0,-0.0209,-0.0214,-0.022,-0.0245,-0.0253,-0.0281,-0.0293,-0.03,-0.0321,-0.0325,-0.0364,-0.037,-0.0388,-0.0418,-0.0424,-0.0432,-0.0432,-0.0491,-0.0491,-0.0492,-0.0471,-0.047,-0.047,0,0,0,0,0,-0.0206,-0.0209,-0.022,-0.0225,-0.0259,-0.0281,-0.0287,-0.0312,-0.0321,-0.0332,-0.0355,-0.037,-0.0425,-0.042,-0.0427,-0.0436,-0.049,-0.0491,-0.0492,-0.0472,-0.0471,-0.047,0,0,0,0,0,0,-0.0189,-0.0213,-0.0226,-0.0236,-0.026,-0.0288,-0.0301,-0.0315,-0.0342,-0.0349,-0.0373,-0.0381,-0.0409,-0.0424,-0.0418,-0.0456,-0.046,-0.0462,-0.0443,-0.0442,-0.0441,-0.0409,-0.0434,0,0,0,0,0,-0.0187,-0.0199,-0.0223,-0.0236,-0.0247,-0.0275,-0.0289,-0.0306,-0.033,-0.0343,-0.037,-0.0396,-0.0416,-0.043,-0.0455,-0.0474,-0.0483,-0.0484,-0.0483,-0.0482,-0.0461,-0.0493,-0.0493,-0.0494,-0.0494,-0.0494,0,0,-0.0185,-0.0201,-0.0209,-0.0234,-0.0256,-0.0261,-0.0285,-0.031,-0.0313,-0.0346,-0.0368,-0.0399,-0.0421,-0.0445,-0.0458,-0.0458,-0.0488,-0.0483,-0.0482,-0.0461,-0.0494,-0.0493,-0.0493,-0.0494,-0.0494,-0.0494,0,0,-0.018,-0.0202,-0.0207,-0.022,-0.025,-0.0264,-0.027,-0.0304,-0.0321,-0.0342,-0.0367,-0.0397,-0.0431,-0.0448,-0.0458,-0.0467,-0.0486,-0.0481,-0.0449,-0.0481,-0.048,-0.048,-0.0492,-0.0493,-0.0477,-0.0477,-0.0477,0,-0.0176,-0.0175,-0.0213,-0.0215,-0.0211,-0.026,-0.0249,-0.0278,-0.0316,-0.0321,-0.0347,-0.0394,-0.0428,-0.0436,-0.0441,-0.0465,-0.0477,-0.045,-0.0479,-0.0479,-0.0479,-0.0491,-0.0492,-0.0476,-0.0476,-0.0477,-0.0477,0,-0.0169,-0.0164,-0.0168,-0.018,-0.019,-0.019,-0.0221,-0.0242,-0.0269,-0.0292,-0.0321,-0.0371,-0.0389,-0.0417,-0.0431,-0.0447,-0.0452,-0.0477,-0.0478,-0.0478,-0.049,-0.0492,-0.0475,-0.0475,-0.0476,-0.0476,0,0,-0.0155,-0.0157,-0.0155,-0.014,-0.0159,-0.0165,-0.0173,-0.0182,-0.0187,-0.0243,-0.0241,-0.0296,-0.0328,-0.034,-0.0377,-0.041,-0.0436,-0.0437,-0.044,-0.0441,-0.0489,-0.0524,-0.053,-0.0469,-0.0469,-0.0469,-0.0497,0,-0.0127,-0.0096,-0.0111,-0.0082,-0.006,-0.009,-0.0088,-0.0113,-0.015,-0.0175,-0.0229,-0.0254,-0.0298,-0.0311,-0.035,-0.0413,-0.044,-0.0425,-0.0493,-0.0495,-0.0521,-0.0533,-0.0491,-0.0514,-0.0499,-0.0499,-0.0499,0,-0.0097,-0.0075,-0.0027,-0.0002,0.0001,0.0005,0.001,-0.0001,-0.0048,-0.0079,-0.0116,-0.0168,-0.0207,-0.026,-0.0345,-0.0333,-0.0397,-0.0454,-0.0458,-0.0493,-0.0534,-0.0513,-0.0518,-0.0502,-0.0502,-0.0502,-0.0502,0,-0.0038,-0.001,0.004,0.0048,0.0056,0.0071,0.007,0.0036,0.003,-0.0017,-0.0029,-0.0095,-0.0123,-0.021,-0.0323,-0.0332,-0.0428,-0.046,-0.0548,-0.055,-0.0527,-0.0527,-0.052,-0.052,-0.052,-0.052,-0.052,0,0.0023,0.006,0.0072,0.0096,0.0136,0.0129,0.0147,0.0127,0.0107,0.0104,0.003,0.0011,-0.0115,-0.019,-0.0295,-0.042,-0.0404,-0.0533,-0.0562,-0.052,-0.0519,-0.0519,-0.0518,-0.0521,-0.0521,-0.0521,-0.052,0,0.0084,0.0096,0.0146,0.0166,0.0165,0.0197,0.0196,0.02,0.0186,0.0184,0.018,0.0096,-0.0008,-0.0139,-0.0288,-0.038,-0.0503,-0.0553,-0.0486,-0.0508,-0.0606,-0.0604,-0.0644,-0.0646,-0.0647,-0.0648,-0.0649,0,0.0123,0.016,0.0185,0.0204,0.0213,0.0243,0.0246,0.0234,0.0245,0.0234,0.0241,0.015,0.0066,-0.0158,-0.0326,-0.0503,-0.0535,-0.058,-0.0604,-0.0595,-0.062,-0.0616,-0.0613,-0.0559,-0.0559,-0.0559,-0.0559,0,0.0184,0.0189,0.0208,0.0247,0.0263,0.0294,0.0316,0.0338,0.0336,0.0347,0.0347,0.0283,0.0065,-0.0119,-0.037,-0.0485,-0.0551,-0.059,-0.0596,-0.0545,-0.0521,-0.0543,-0.0541,-0.0559,-0.0559,-0.0559,-0.0559,-0.0559,0.0201,0.0218,0.0227,0.0271,0.0315,0.0367,0.0398,0.0428,0.0463,0.0498,0.0424,0.0358,0.0121,-0.0195,-0.0388,-0.0559,-0.0583,-0.0639,-0.0636,-0.0634,-0.063,-0.0611,-0.0664,-0.0665,-0.0665,-0.0666,-0.0666,0,0.0194,0.021,0.0246,0.0299,0.0377,0.0396,0.0452,0.0486,0.0557,0.0569,0.0557,0.0351,0.0107,-0.0129,-0.0381,-0.0578,-0.0565,-0.0628,-0.0565,-0.0565,-0.0564,-0.0554,-0.057,-0.057,-0.057,-0.057,0,0,0.0179,0.0185,0.0202,0.0326,0.0409,0.0495,0.0548,0.0607,0.064,0.0656,0.0639,0.0494,0.0183,0.0017,-0.0254,-0.0391,-0.0419,-0.0413,-0.0473,-0.0367,-0.0363,-0.0563,-0.0547,0,0,0,0,0]}],[{"header":{"parameterUnit":"m.s-1","parameterCategory":2,"la1":30.2991,"la2":30.254,"lo1":-89.0895,"lo2":-89.0444,"dy":0.0017,"dx":0.0017,"nx":28,"ny":28,"refTime":"2023-11-21T09:00:00:Z","depth":"4","parameterNumber":2,"parameterNumberName":"U-component_of_CURRENTS"},"data":[0,0,0,0,0,0,0,0,0,0,0,0,0,0,0,0,0,0,0,0,0,0,0,0,0,0,0,0,0,0,0,0,0,0,0,0,0,0,0,0,0,0,0,0,0,0,0,0,0,0,0,0,0,0,0,0,0,0,0.0386,0.0386,0,0.0423,0.0423,0.0424,0.0479,0.048,0.0481,0.0482,0.0566,0.0568,0.0569,0,0,0,0,0,0,0,0,0,0,0,0,0,0.0355,0.0355,0.0385,0.0386,0.0386,0.0423,0.0423,0.0424,0.0479,0.048,0.0481,0.0482,0.0566,0.0567,0.0569,0,0,0,0,0,0,0,0,0,0,0,0,0,0.0378,0.0355,0.0385,0.0418,0.0421,0.0422,0.0423,0.0424,0.0478,0.048,0.0481,0.0483,0.0565,0.0567,0.0569,0.0554,0,0,0.0576,0.0576,0,0,0,0,0,0,0,0,0.0377,0.0379,0.0413,0.0416,0.0419,0.0447,0.0443,0.047,0.0478,0.0457,0.0482,0.0483,0.0529,0.0535,0.0538,0.0558,0.0561,0.0576,0.0577,0.0578,0.0578,0,0,0,0,0,0,0,0.0375,0.0378,0.0401,0.0413,0.0417,0.0428,0.0433,0.0448,0.0486,0.0459,0.0463,0.0466,0.0532,0.0536,0.0541,0.0563,0.0576,0.0578,0.0579,0.058,0.0648,0.0649,0,0,0,0,0,0,0.0368,0.0376,0.0399,0.0402,0.0401,0.0427,0.0433,0.0437,0.0485,0.0493,0.0465,0.0468,0.0532,0.0538,0.0544,0.0595,0.0578,0.058,0.0581,0.0648,0.0648,0.0649,0,0,0,0,0,0,0.0368,0.037,0.0398,0.039,0.0394,0.0427,0.0431,0.0437,0.0468,0.0489,0.0498,0.0492,0.0533,0.0541,0.0587,0.0596,0.0581,0.0583,0.0647,0.0648,0.0649,0.0655,0,0,0,0,0,0,0.0367,0.037,0.0372,0.0389,0.0394,0.0413,0.0429,0.0437,0.0466,0.0472,0.0514,0.0522,0.0535,0.0584,0.0589,0.0599,0.0584,0.0646,0.0647,0.0649,0.0654,0.0656,0.0657,0,0,0,0,0,0.0365,0.0365,0.0372,0.0375,0.0396,0.0414,0.0418,0.0446,0.0466,0.0479,0.0517,0.0522,0.0594,0.0586,0.0592,0.0603,0.0646,0.0647,0.0648,0.0653,0.0655,0.0657,0,0,0,0,0,0,0.0354,0.0371,0.0379,0.0384,0.0403,0.0424,0.0434,0.0456,0.0493,0.0506,0.0534,0.0544,0.0585,0.0594,0.0585,0.0626,0.0619,0.0621,0.062,0.0623,0.0624,0.0609,0.0586,0,0,0,0,0,0.035,0.0356,0.0375,0.038,0.0389,0.0415,0.0427,0.0449,0.048,0.0499,0.0536,0.0567,0.0588,0.0608,0.063,0.0654,0.0647,0.0663,0.0665,0.0667,0.0659,0.0663,0.0664,0.0653,0.0653,0.0653,0,0,0.0345,0.0356,0.0359,0.0378,0.0393,0.0413,0.0427,0.0451,0.0479,0.0501,0.0558,0.0578,0.0597,0.0627,0.0645,0.0641,0.0666,0.0668,0.0669,0.066,0.0665,0.0666,0.0666,0.0654,0.0654,0.0654,0,0,0.0343,0.035,0.0359,0.0376,0.0403,0.0418,0.0431,0.0469,0.0497,0.054,0.0564,0.0592,0.0636,0.0648,0.0657,0.068,0.0676,0.0691,0.0688,0.0694,0.0694,0.0695,0.0683,0.0683,0.0691,0.0691,0.0691,0,0.0338,0.0356,0.0364,0.0383,0.0402,0.0425,0.045,0.0472,0.0527,0.0545,0.0563,0.0615,0.064,0.0657,0.067,0.0683,0.0681,0.0679,0.0695,0.0695,0.0695,0.0684,0.0683,0.0692,0.0692,0.0692,0.0691,0,0.0348,0.0368,0.0375,0.0407,0.0425,0.0449,0.048,0.051,0.0544,0.0565,0.0602,0.0628,0.0655,0.0666,0.0678,0.0692,0.0688,0.0696,0.0686,0.0696,0.0684,0.0683,0.0692,0.0692,0.0692,0.0692,0,0,0.033,0.0375,0.0381,0.0405,0.0446,0.0462,0.0498,0.0531,0.0556,0.0591,0.0619,0.0647,0.0655,0.0665,0.068,0.0684,0.069,0.0694,0.0694,0.0676,0.0691,0.0715,0.0716,0.0705,0.0705,0.0705,0.068,0,0.0343,0.0384,0.0403,0.0447,0.0473,0.05,0.0529,0.0558,0.0589,0.0621,0.0625,0.0661,0.0656,0.0678,0.0676,0.0692,0.0689,0.0695,0.0689,0.0688,0.0703,0.0717,0.0705,0.0679,0.0679,0.0678,0.0678,0,0.0355,0.0383,0.0429,0.0476,0.0488,0.0513,0.0559,0.0589,0.0617,0.064,0.065,0.0668,0.0675,0.0681,0.0675,0.0681,0.0685,0.0687,0.0687,0.0704,0.0711,0.0668,0.0676,0.0677,0.0677,0.0677,0.0677,0,0.0352,0.0403,0.0444,0.0463,0.0512,0.0534,0.0558,0.0593,0.0619,0.0656,0.0681,0.0678,0.0708,0.0686,0.0702,0.0691,0.07,0.0684,0.0697,0.0698,0.0679,0.0679,0.0679,0.0679,0.0679,0.0679,0.0679,0,0.0367,0.04,0.0445,0.0469,0.0501,0.0537,0.0575,0.0597,0.0633,0.0662,0.069,0.0718,0.0719,0.0733,0.0706,0.0705,0.0701,0.0693,0.0697,0.0682,0.0683,0.0678,0.0678,0.0678,0.0678,0.0678,0.0678,0,0.0365,0.0402,0.0438,0.0488,0.0504,0.0523,0.0575,0.0599,0.0644,0.0685,0.0703,0.0757,0.0788,0.0784,0.078,0.0741,0.072,0.0726,0.0711,0.0715,0.0699,0.07,0.07,0.0701,0.0702,0.0702,0.0703,0,0.0372,0.0393,0.0437,0.045,0.0475,0.0513,0.054,0.0591,0.062,0.0705,0.072,0.0795,0.0825,0.0815,0.0816,0.0771,0.0772,0.0738,0.0705,0.07,0.0703,0.0703,0.0703,0.0704,0.0704,0.0704,0.0704,0,0.0366,0.0379,0.0399,0.0427,0.0456,0.0487,0.0532,0.0553,0.0624,0.0676,0.0734,0.0763,0.0821,0.082,0.0831,0.0786,0.0735,0.0744,0.0741,0.071,0.0704,0.0707,0.0706,0.0706,0.0706,0.0706,0.0706,0,0.0343,0.034,0.0363,0.0385,0.0422,0.0451,0.0482,0.0534,0.0574,0.0672,0.0693,0.0766,0.0826,0.0831,0.0816,0.0809,0.0778,0.0717,0.0715,0.0713,0.0733,0.0729,0.0741,0,0,0,0,0,0.031,0.0304,0.0322,0.0341,0.0382,0.0409,0.0472,0.051,0.0592,0.0622,0.0656,0.0707,0.0744,0.0775,0.0767,0.0807,0.0767,0.0792,0.0693,0.0718,0.0716,0.0742,0,0,0,0,0,0,0.0281,0.0289,0.0302,0.0313,0.0326,0.0368,0.0412,0.0466,0.049,0.0574,0.0602,0.066,0.0704,0.0741,0.0751,0.0758,0.068,0.0833,0.0832,0.072,0.0717,0.0715,0.0741,0,0,0,0,0]},{"header":{"parameterUnit":"m.s-1","parameterCategory":2,"la1":30.2991,"la2":30.254,"lo1":-89.0895,"lo2":-89.0444,"dy":0.0017,"dx":0.0017,"nx":28,"ny":28,"refTime":"2023-11-21T09:00:00:Z","depth":"4","parameterNumber":3,"parameterNumberName":"V-component_of_CURRENTS"},"data":[0,0,0,0,0,0,0,0,0,0,0,0,0,0,0,0,0,0,0,0,0,0,0,0,0,0,0,0,0,0,0,0,0,0,0,0,0,0,0,0,0,0,0,0,0,0,0,0,0,0,0,0,0,0,0,0,0,0,0.0314,0.0314,0,0.0317,0.0317,0.0317,0.028,0.028,0.0279,0.0278,0.0206,0.0205,0.0204,0,0,0,0,0,0,0,0,0,0,0,0,0,0.023,0.0232,0.0314,0.0314,0.0314,0.0317,0.0317,0.0317,0.0281,0.0279,0.0278,0.0277,0.0206,0.0205,0.0204,0,0,0,0,0,0,0,0,0,0,0,0,0,0.0252,0.0233,0.0314,0.0297,0.0296,0.0317,0.0317,0.0316,0.0281,0.0279,0.0278,0.0277,0.0207,0.0205,0.0204,0.0221,0,0,0.0199,0.0198,0,0,0,0,0,0,0,0,0.0251,0.0255,0.03,0.0299,0.0297,0.0298,0.0261,0.0281,0.0281,0.0286,0.0278,0.0276,0.0232,0.0228,0.0231,0.0217,0.0214,0.0199,0.0198,0.0197,0.0197,0,0,0,0,0,0,0,0.025,0.0255,0.0314,0.03,0.0298,0.0273,0.0275,0.0264,0.0264,0.0285,0.0283,0.0285,0.023,0.0233,0.0229,0.0213,0.0199,0.0197,0.0196,0.0196,0.0147,0.0147,0,0,0,0,0,0,0.0256,0.0254,0.0314,0.0314,0.0271,0.0276,0.0278,0.0298,0.0265,0.026,0.0286,0.0283,0.0236,0.0231,0.0226,0.0188,0.0197,0.0196,0.0195,0.0147,0.0147,0.0147,0,0,0,0,0,0,0.0254,0.0262,0.0314,0.0283,0.0288,0.028,0.0302,0.0299,0.0298,0.0267,0.026,0.0287,0.0235,0.0228,0.021,0.0187,0.0195,0.0193,0.0148,0.0147,0.0147,0.0149,0,0,0,0,0,0,0.0252,0.0262,0.028,0.0285,0.029,0.033,0.0303,0.03,0.0302,0.0298,0.0266,0.0258,0.0233,0.0213,0.0208,0.0185,0.0192,0.0148,0.0148,0.0147,0.0149,0.0148,0.0148,0,0,0,0,0,0.025,0.0287,0.0282,0.0289,0.0316,0.0331,0.0332,0.0319,0.0303,0.0311,0.0281,0.0259,0.0205,0.0212,0.0207,0.0182,0.0148,0.0148,0.0147,0.0149,0.0148,0.0148,0,0,0,0,0,0,0.0273,0.0288,0.0281,0.0325,0.0326,0.0325,0.0336,0.0325,0.0311,0.0302,0.0266,0.0257,0.023,0.0214,0.0223,0.0167,0.0169,0.0167,0.0172,0.0171,0.0171,0.0119,0.0191,0,0,0,0,0,0.0285,0.0309,0.0315,0.0348,0.035,0.0342,0.0347,0.0337,0.0325,0.0318,0.0291,0.0258,0.0226,0.0206,0.0185,0.0164,0.0123,0.0142,0.0141,0.0141,0.0095,0.0037,0.0026,0.0144,0.0144,0.0144,0,0,0.0305,0.0315,0.033,0.0353,0.0352,0.0337,0.0341,0.0353,0.0323,0.0313,0.0271,0.0263,0.0223,0.0192,0.0176,0.0172,0.0092,0.014,0.0139,0.0093,0.0035,0.0023,0.0012,0.0144,0.0144,0.0144,0,0,0.0325,0.0363,0.0366,0.0363,0.0362,0.0356,0.0358,0.0352,0.0335,0.0311,0.0283,0.0256,0.0224,0.0177,0.015,0.0135,0.0097,0.0139,0.0082,0.0028,0.0017,0.0007,-0.0036,-0.0051,0.013,0.013,0.013,0,0.034,0.0335,0.0371,0.0356,0.0335,0.0357,0.0325,0.0323,0.0306,0.0276,0.0294,0.0213,0.0201,0.0119,0.0111,0.0127,0.0096,0.0092,0.0025,0.0014,0.0003,-0.0039,-0.0055,0.013,0.013,0.013,0.013,0,0.0332,0.0322,0.0328,0.0301,0.03,0.0287,0.0277,0.027,0.0257,0.0235,0.0178,0.0165,0.01,0.0109,0.0101,0.0015,0.002,0.004,0.0024,-0.0009,-0.005,-0.0067,0.013,0.013,0.013,0.013,0,0,0.035,0.032,0.0313,0.0277,0.0257,0.0259,0.0218,0.0173,0.0144,0.0126,0.0064,0.0016,0.0011,-0.0022,-0.0024,-0.0069,-0.0143,-0.0053,-0.0056,-0.0103,-0.0265,-0.0181,-0.0191,-0.013,-0.0134,-0.0137,-0.0254,0,0.0305,0.0255,0.0248,0.0189,0.0155,0.015,0.0116,0.0091,0.0077,0.0044,0.0004,-0.0033,-0.004,-0.005,-0.011,-0.0123,-0.0192,-0.0114,-0.0222,-0.0227,-0.0154,-0.0209,-0.0147,-0.0267,-0.0271,-0.0273,-0.0275,0,0.0255,0.023,0.0157,0.0109,0.0096,0.0072,0.0022,-0.0004,-0.0042,-0.0051,-0.0113,-0.0117,-0.0204,-0.017,-0.0301,-0.0248,-0.0288,-0.0298,-0.0301,-0.0251,-0.0175,-0.0233,-0.0306,-0.0304,-0.0301,-0.0299,-0.0297,0,0.0206,0.0153,0.0089,0.0069,0.0033,-0.0001,-0.0016,-0.0045,-0.0051,-0.0109,-0.0106,-0.0216,-0.0233,-0.0329,-0.0346,-0.034,-0.0448,-0.0437,-0.0419,-0.0413,-0.0453,-0.0441,-0.0567,-0.0566,-0.0566,-0.0566,-0.0566,0,0.0129,0.0079,0.0068,0.0031,0.0003,-0.0027,-0.0055,-0.0075,-0.0098,-0.0093,-0.0159,-0.0167,-0.027,-0.0317,-0.0378,-0.0436,-0.049,-0.0468,-0.0453,-0.0443,-0.0429,-0.0464,-0.045,-0.057,-0.0569,-0.0568,-0.0568,0,0.0068,0.004,-0.0003,-0.003,-0.0026,-0.0039,-0.0029,-0.0032,-0.0072,-0.0066,-0.0081,-0.0143,-0.0216,-0.0293,-0.0404,-0.0444,-0.0514,-0.0521,-0.0498,-0.0472,-0.0451,-0.0436,-0.0575,-0.0574,-0.0572,-0.0571,-0.057,0,0.0022,-0.0013,-0.0006,0.0011,-0.0001,-0.0004,0.0013,-0.001,0.0003,-0.0033,-0.0021,-0.0093,-0.0135,-0.0245,-0.034,-0.0477,-0.0477,-0.0529,-0.0535,-0.0489,-0.0461,-0.0448,-0.0435,-0.0568,-0.0568,-0.0567,-0.0567,0,-0.0029,-0.0018,-0.002,0.0019,0.0042,0.0074,0.0088,0.0103,0.0084,0.0061,0.0039,-0.0032,-0.0101,-0.0216,-0.0293,-0.039,-0.0508,-0.0516,-0.0521,-0.0527,-0.0482,-0.0452,-0.0441,-0.0562,-0.0563,-0.0563,-0.0563,0,-0.0032,-0.0011,0.001,0.0047,0.0088,0.0126,0.0135,0.015,0.0153,0.0116,0.0117,0.0016,-0.0046,-0.0169,-0.0243,-0.0322,-0.0371,-0.0407,-0.0419,-0.0426,-0.0327,-0.0244,-0.0273,0,0,0,0,0,-0.0035,-0.0002,0.004,0.0083,0.0123,0.0138,0.018,0.0184,0.0181,0.0184,0.0147,0.0087,-0.0044,-0.0112,-0.0184,-0.0241,-0.0392,-0.0327,-0.044,-0.0535,-0.0541,-0.0441,0,0,0,0,0,0,-0.0034,0.0007,0.0043,0.0102,0.0129,0.0172,0.0195,0.0196,0.0196,0.0179,0.0113,0.0071,-0.0057,-0.0007,-0.0188,-0.0215,-0.0294,-0.0395,-0.0396,-0.0532,-0.0537,-0.0542,-0.0441,0,0,0,0,0]}]]